This demonstration page uses our WeatherBlox Daily Observations layout. Learn more.

38.88101, -77.10428

Hourly Observations for June 13, 2019

Temp ( °F °C ) Dew Point ( °F °C ) Humidity (%) Winds ( mph kmh ) Pressure ( in mb ) Visibility ( mi km ) Precip ( " mm )
12:52 am 00:52 Cloudy 67 19.4 62 16.7 84 84 ENE 8 13 29.94 1014 10 16.0934 0 0.0254
1:52 am 01:52 Cloudy with Rain 67 19.4 63 17.2 87 87 ESE 14 22 29.9 1013 4 6.43736 0.01 0.254
2:52 am 02:52 Cloudy with Rain 67 19.4 63 17.2 87 87 E 10 17 29.85 1011 6 9.65604 0.15 3.81
3:26 am 03:26 Cloudy with Light Rain 66 18.9 63 17.2 90 90 VRB 3 6 29.84 1010 5 8.0467 0.08 2.032
3:52 am 03:52 Cloudy with Rain 67 19.4 63 17.2 87 87 ENE 6 9 29.82 1010 6 9.65604 0.13 3.302
4:52 am 04:52 Cloudy with Rain 66 18.9 62 16.7 87 87 ENE 8 13 29.82 1010 8 12.87472 0.06 1.524
5:52 am 05:52 Cloudy with Heavy Rain 65 18.3 61 16.1 87 87 ENE 7 11 29.8 1009 3 4.82802 0.23 5.842
6:26 am 06:26 Cloudy with Light Rain 65 18.3 62 16.7 90 90 ENE 12 19 29.78 1008 7 11.26538 0.04 1.016
6:52 am 06:52 Cloudy with Light Rain 65 18.3 61 16.1 87 87 ENE 9 15 29.78 1009 10 16.0934 0.04 1.016
7:48 am 07:48 Cloudy 64 18 63 17 94 94 NE 8 13 29.78 1008 10 16.0934 0.01 0.254
7:52 am 07:52 Cloudy 65 18.3 62 16.7 90 90 NE 8 13 29.78 1008 10 16.0934 0.01 0.254
8:52 am 08:52 Cloudy with Light Rain 65 18.3 61 16.1 87 87 ENE 5 7 29.8 1009 10 16.0934 0 0.0254
9:52 am 09:52 Cloudy 66 18.9 62 16.7 87 87 ENE 3 6 29.8 1009 10 16.0934 0 0.0254
10:52 am 10:52 Cloudy 66 18.9 62 16.7 87 87 ENE 5 7 29.8 1009 10 16.0934 0 0
10:59 am 10:59 Cloudy 66 18.9 62 16.7 87 87 E 5 7 29.81 1009 10 16.0934 0 0
11:33 am 11:33 Cloudy 67 19.4 62 16.7 84 84 SE 3 6 29.8 1009 10 16.0934 0 0
11:44 am 11:44 Cloudy 67 19.4 62 16.7 84 84 SSE 3 6 29.8 1009 10 16.0934 0 0
11:52 am 11:52 Cloudy 67 19.4 63 17.2 87 87 Calm 29.8 1009 10 16.0934 0 0
12:40 pm 12:40 Cloudy 69 20.6 64 17.8 84 84 S 7 11 29.78 1008 9 14.48406 0 0
12:52 pm 12:52 Cloudy 70 21.1 65 18.3 84 84 S 7 11 29.78 1009 10 16.0934 0 0
12:58 pm 12:58 Cloudy 69 20.6 65 18.3 87 87 S 6 9 29.78 1008 7 11.26538 0 0
1:42 pm 13:42 Mostly Cloudy 72 22.2 67 19.4 84 84 SSE 8 13 29.76 1008 10 16.0934 0 0.0254
1:52 pm 13:52 Mostly Cloudy 72 22.2 66 18.9 82 82 S 8 13 29.76 1008 10 16.0934 0 0.0254
2:52 pm 14:52 Mostly Cloudy 75 23.9 65 18.3 71 71 S 10 17 29.75 1007 10 16.0934 0 0
3:52 pm 15:52 Mostly Cloudy 77 25 63 17.2 62 62 S 16 26 29.72 1007 10 16.0934 0 0
4:52 pm 16:52 Mostly Cloudy 76 24.4 60 15.6 58 58 SSW 15 24 29.71 1006 10 16.0934 0 0
5:39 pm 17:39 Cloudy with Heavy Thunderstorms 72 22.2 63 17.2 73 73 WSW 29 46 29.75 1007 2 3.21868 0.02 0.508
5:41 pm 17:41 Cloudy with Heavy Thunderstorms 69 20.6 62 16.7 78 78 WSW 30 48 29.76 1008 1 1.60934 0.05 1.27
5:45 pm 17:45 Cloudy with Heavy Thunderstorms 64 17.8 59 15 84 84 WSW 14 22 29.74 1007 3 4.82802 0.29 7.366
5:52 pm 17:52 Cloudy with Nearby Thunderstorms 65 18.3 59 15 81 81 S 16 26 29.72 1007 7 11.26538 0.37 9.398
5:58 pm 17:58 Cloudy with Light Rain 67 19.4 60 15.6 79 79 WSW 14 22 29.73 1007 7 11.26538 0 0
6:52 pm 18:52 Mostly Cloudy 71 21.7 62 16.7 73 73 NNW 10 17 29.76 1008 10 16.0934 0 0
7:52 pm 19:52 Partly Cloudy 70 21.1 62 16.7 76 76 S 7 11 29.78 1008 10 16.0934 0 0
8:52 pm 20:52 Mostly Cloudy 68 20 62 16.7 81 81 SW 6 9 29.81 1010 10 16.0934 0 0
9:52 pm 21:52 Cloudy with Light Rain 68 20 54 12.2 61 61 W 6 9 29.85 1011 10 16.0934 0.04 1.016
10:52 pm 22:52 Partly Cloudy 68 20 52 11.1 57 57 W 7 11 29.87 1011 10 16.0934 0 0.0254
11:52 pm 23:52 Partly Cloudy 63 17.2 53 11.7 70 70 SW 7 11 29.88 1012 10 16.0934 0 0

Powered by AerisWeather